Location: Newark
(12.4436°N, 0.6167°W)
Time: 03:00:06
(UTC+00:00)

Vanguard 2 - Pass Details

Date: 08 December 2019
Orbit: 553 x 2938 km, 32.9° (Epoch: 28 January)

Event Time Altitude Azimuth Distance (km) Brightness Sun altitude
Rises 22:55:44 0° 227° (SW) 4,618 - -72.6°
Reaches altitude 10° 22:58:21 10° 225° (SW) 3,903 - -73.1°
Maximum altitude 23:09:25 71° 142° (SE) 2,396 - -75.1°
Drops below altitude 10° 23:26:17 10° 62° (ENE) 5,695 - -77.7°
Sets 23:30:59 0° 61° (ENE) 6,784 - -78.3°
